PBO Station Position Time Series. Reference Frame : NAM14
Format Version,1.1.1
4-character ID,P550
Station name,GradeVallyCS2007
Begin Date, 2007-06-13
End Date, 2023-06-26
Release Date, 2023-06-27
Reference position, 34.6600836590 North Latitude, -119.1146208797 East Longitude, 1526.12734 meters elevation,
Date, North (mm), East (mm), Vertical (mm), North Std. Deviation (mm), East Std. Deviation (mm),              Vertical Std. Deviation (mm), Quality,
2007-06-13,0.00, 0.00, 0.00, 1.94, 1.65, 7.29, repro,
2007-06-14,1.22, 0.91, -10.81, 1.95, 1.65, 7.37, repro,
2007-06-15,-0.09, -0.83, -4.37, 1.92, 1.64, 7.29, repro,
2007-06-16,-0.88, -0.97, -2.32, 1.88, 1.59, 7.13, repro,
2007-06-17,-0.33, -0.93, -3.36, 1.87, 1.58, 7.07, repro,
2007-06-18,-0.64, 0.33, 1.23, 1.90, 1.63, 7.31, repro,
2007-06-19,-0.58, -1.12, -10.29, 1.89, 1.60, 7.19, repro,
2007-06-20,0.09, -0.05, -8.18, 1.89, 1.59, 7.18, repro,
2007-06-21,-0.85, 0.02, -2.92, 1.89, 1.59, 7.18, repro,
2007-06-22,0.16, -1.01, -4.81, 1.87, 1.59, 7.11, repro,
2007-06-23,0.30, -0.37, -3.53, 1.88, 1.59, 7.14, repro,
2007-06-24,-0.66, -1.27, -7.41, 1.93, 1.64, 7.43, repro,
2007-06-25,0.62, 0.03, -9.89, 1.91, 1.59, 7.27, repro,
2007-06-26,-1.20, -0.70, -6.57, 1.90, 1.59, 7.22, repro,
2007-06-27,-0.82, -0.42, -6.96, 1.87, 1.58, 7.13, repro,
2007-06-28,-0.52, -0.61, -3.37, 1.88, 1.59, 7.21, repro,
2007-06-29,-0.10, 0.95, -7.02, 1.89, 1.60, 7.26, repro,
2007-06-30,-0.46, 1.35, -5.75, 1.90, 1.60, 7.24, repro,
2007-07-01,0.76, -0.34, -2.33, 1.89, 1.59, 7.22, repro,
2007-07-02,0.02, 0.68, -2.80, 1.88, 1.58, 7.12, repro,
2007-07-03,0.67, -0.02, -8.87, 1.88, 1.60, 7.21, repro,
2007-07-04,0.00, -0.82, -3.06, 1.89, 1.61, 7.28, repro,
2007-07-05,-0.96, 0.92, -9.68, 1.90, 1.60, 7.26, repro,
2007-07-06,-0.01, -0.59, -6.78, 1.93, 1.67, 7.42, repro,
2007-07-07,-1.08, -0.89, -3.81, 1.88, 1.59, 7.16, repro,
2007-07-08,-0.97, -0.63, -2.51, 1.89, 1.59, 7.18, repro,
2007-07-09,0.03, -0.89, -3.01, 1.89, 1.62, 7.30, repro,
2007-07-10,0.73, 0.01, -5.89, 1.90, 1.62, 7.32, repro,
2007-07-11,0.60, 0.52, -2.07, 1.89, 1.60, 7.21, repro,
2007-07-12,1.07, 0.93, -10.56, 1.94, 1.71, 7.42, repro,
2007-07-13,-0.63, 0.33, -2.80, 1.91, 1.65, 7.26, repro,
2007-07-14,1.46, -1.12, -4.08, 1.91, 1.65, 7.28, repro,
2007-07-15,0.16, 0.96, -8.42, 1.93, 1.68, 7.43, repro,
2007-07-16,0.10, 2.01, -4.41, 1.93, 1.69, 7.50, repro,
2007-07-17,1.08, -1.08, 4.24, 1.89, 1.60, 7.17, repro,
2007-07-18,2.20, -0.97, -1.58, 1.91, 1.63, 7.19, repro,
2007-07-19,-0.18, -1.52, -5.03, 1.91, 1.66, 7.36, repro,
2007-07-20,1.58, -0.08, -2.80, 1.93, 1.67, 7.43, repro,
2007-07-21,0.46, -0.26, -1.10, 1.93, 1.68, 7.44, repro,
2007-07-22,2.12, 0.01, -0.14, 1.98, 1.69, 7.62, repro,
2007-07-23,2.14, -0.30, -4.24, 1.92, 1.66, 7.37, repro,
2007-07-24,-0.43, 1.06, 8.00, 1.93, 1.66, 7.36, repro,
2007-07-25,-0.36, -1.13, 1.33, 1.93, 1.67, 7.41, repro,
2007-07-26,-1.72, 0.64, 0.89, 1.91, 1.62, 7.31, repro,
2007-07-27,-1.97, 0.81, 2.05, 1.93, 1.69, 7.49, repro,
2007-07-28,0.80, 0.40, -7.37, 1.94, 1.69, 7.50, repro,
2007-07-29,-0.04, 0.00, 0.97, 1.92, 1.68, 7.42, repro,
2007-07-30,-0.43, -0.22, 2.89, 1.93, 1.67, 7.41, repro,
2007-07-31,0.15, -0.14, -3.01, 1.92, 1.67, 7.38, repro,
2007-08-01,-0.07, 0.45, 5.75, 1.90, 1.62, 7.30, repro,
2007-08-02,0.39, -2.00, 8.66, 2.01, 1.75, 7.73, repro,
2007-08-03,1.49, 1.35, -1.56, 1.89, 1.60, 7.18, repro,
2007-08-04,-0.49, 0.76, -3.15, 1.88, 1.61, 7.19, repro,
2007-08-05,-0.43, -0.92, 5.00, 1.92, 1.61, 7.28, repro,
2007-08-06,1.92, -1.20, 4.32, 1.91, 1.65, 7.36, repro,
2007-08-07,-0.10, 0.23, 1.63, 1.90, 1.64, 7.38, repro,
2007-08-08,0.24, -0.02, -4.05, 1.91, 1.65, 7.27, repro,
2007-08-09,-0.00, 0.24, 3.29, 1.90, 1.60, 7.22, repro,
2007-08-10,-0.02, 1.03, 5.78, 1.87, 1.59, 7.13, repro,
2007-08-11,-0.19, 1.02, 4.58, 1.88, 1.59, 7.18, repro,
2007-08-12,1.14, 0.87, 2.66, 1.87, 1.60, 7.17, repro,
2007-08-13,0.50, 0.07, 1.06, 1.88, 1.60, 7.17, repro,
2007-08-14,0.45, 0.74, -4.34, 2.00, 1.71, 7.56, repro,
2007-08-15,0.16, 0.10, -2.53, 2.00, 1.71, 7.61, repro,
2007-08-16,0.77, -0.95, -0.89, 1.96, 1.66, 7.52, repro,
2007-08-17,1.80, 0.63, 0.47, 1.98, 1.65, 7.56, repro,
2007-08-18,2.80, 0.66, -3.18, 1.97, 1.69, 7.67, repro,
2007-08-19,0.49, 0.66, 0.68, 2.20, 1.90, 8.83, repro,
2007-08-20,1.57, 0.54, -3.45, 1.95, 1.64, 7.45, repro,
2007-08-21,1.23, -0.65, -5.68, 2.01, 1.66, 7.63, repro,
2007-08-22,0.12, 0.01, -0.24, 2.00, 1.71, 7.64, repro,
2007-08-23,0.51, 0.75, 4.65, 1.93, 1.62, 7.36, repro,
2007-08-24,0.42, 0.27, 3.22, 2.04, 1.71, 7.75, repro,
2007-08-25,1.07, 0.96, -4.03, 1.99, 1.69, 7.60, repro,
2007-08-26,1.27, 0.60, 1.49, 2.00, 1.73, 7.75, repro,
2007-08-27,-0.01, 0.17, -4.45, 2.04, 1.80, 7.84, repro,
2007-08-28,-0.72, 1.15, 0.71, 2.01, 1.74, 7.71, repro,
2007-08-29,-0.47, 0.86, -3.90, 1.98, 1.69, 7.57, repro,
2007-08-30,1.40, 0.95, -2.54, 2.06, 1.71, 7.87, repro,
2007-08-31,-0.35, -0.22, -2.82, 2.01, 1.74, 7.73, repro,
2007-09-01,2.13, -3.43, -0.23, 2.05, 1.79, 7.89, repro,
2007-09-02,0.20, -2.13, 7.94, 1.97, 1.69, 7.57, repro,
2007-09-03,1.20, -0.30, -1.42, 1.97, 1.70, 7.62, repro,
2007-09-04,1.23, 0.01, -3.69, 1.97, 1.70, 7.56, repro,
2007-09-05,0.51, -0.35, 2.58, 1.97, 1.68, 7.55, repro,
2007-09-06,0.97, -0.44, -0.52, 1.96, 1.69, 7.54, repro,
2007-09-07,-0.37, -0.99, -1.35, 1.96, 1.68, 7.50, repro,
2007-09-08,-0.53, 0.18, -4.73, 2.05, 1.79, 7.93, repro,
2007-09-09,-1.59, -0.77, 6.92, 2.05, 1.79, 7.94, repro,
2007-09-10,0.91, -1.62, -1.04, 2.03, 1.74, 7.73, repro,
2007-09-11,1.11, -1.96, 0.86, 1.99, 1.69, 7.55, repro,
2007-09-12,0.12, -1.90, -5.18, 2.01, 1.71, 7.65, repro,
2007-09-13,-3.24, -0.21, 1.74, 2.10, 1.74, 7.97, repro,
2007-09-14,1.28, -0.92, -1.35, 2.04, 1.74, 7.79, repro,
2007-09-15,1.32, -0.66, -0.91, 2.11, 1.71, 7.97, repro,
2007-09-16,0.65, -1.99, 0.57, 2.06, 1.69, 7.76, repro,
2007-09-17,0.90, -3.64, 2.19, 2.04, 1.77, 7.84, repro,
2007-09-18,-1.07, -0.99, -5.43, 1.94, 1.68, 7.41, repro,
2007-09-19,-0.71, 0.21, -0.18, 1.91, 1.61, 7.29, repro,
2007-09-20,1.22, -0.29, 5.69, 1.95, 1.65, 7.44, repro,
2007-09-21,1.36, -1.62, 1.62, 2.02, 1.70, 7.72, repro,
2007-09-22,0.59, -0.71, 1.17, 1.96, 1.65, 7.49, repro,
2007-09-23,-0.30, -0.30, -5.75, 2.00, 1.72, 7.73, repro,
2007-09-24,-0.24, -0.27, 6.70, 2.14, 1.80, 8.40, repro,
2007-09-25,-0.39, -0.73, 1.81, 1.98, 1.65, 7.58, repro,
2007-09-26,1.81, -0.98, 8.07, 2.01, 1.63, 7.59, repro,
2007-09-27,0.43, -1.60, 4.45, 1.98, 1.65, 7.58, repro,
2007-09-28,1.73, -0.07, 0.92, 1.95, 1.70, 7.51, repro,
2007-09-29,-0.83, -2.19, -4.29, 1.95, 1.71, 7.62, repro,
2007-09-30,-0.78, -1.97, 7.33, 2.22, 1.95, 8.68, repro,
2007-10-01,1.41, -1.14, 4.04, 1.96, 1.71, 7.63, repro,
2007-10-02,0.14, -0.90, 3.92, 2.00, 1.77, 7.85, repro,
2007-10-03,0.13, -0.95, 5.56, 2.01, 1.69, 7.71, repro,
2007-10-04,-0.47, -0.98, 6.55, 2.04, 1.75, 7.82, repro,
2007-10-05,-0.34, -1.68, -1.17, 1.99, 1.76, 7.87, repro,
2007-10-06,2.33, -1.80, 1.06, 2.00, 1.72, 7.75, repro,
2007-10-07,0.83, -0.18, 2.37, 2.00, 1.73, 7.79, repro,
2007-10-08,-0.01, -1.15, 5.67, 2.17, 1.82, 8.65, repro,
2007-10-09,-2.10, -1.21, 7.88, 2.09, 1.87, 8.24, repro,
2007-10-10,-0.74, -0.43, 3.44, 2.09, 1.74, 8.10, repro,
2007-10-11,-0.64, -0.53, -0.69, 1.94, 1.70, 7.60, repro,
2007-10-12,0.27, -2.72, 9.95, 2.03, 1.84, 8.06, repro,
2007-10-13,-0.32, -1.90, 5.05, 1.92, 1.66, 7.48, repro,
2007-10-14,0.17, -1.07, 4.49, 1.91, 1.66, 7.45, repro,
2007-10-15,-1.53, -1.53, 4.68, 1.93, 1.68, 7.52, repro,
2007-10-16,-0.59, -3.05, 3.26, 1.93, 1.69, 7.59, repro,
2007-10-17,2.16, -1.61, 4.65, 1.94, 1.69, 7.64, repro,
2007-10-18,2.37, -1.87, 8.39, 1.95, 1.71, 7.64, repro,
2007-10-19,0.02, -1.22, 6.16, 1.92, 1.66, 7.48, repro,
2007-10-20,1.56, -3.80, 8.43, 1.93, 1.68, 7.50, repro,
2007-10-21,-0.17, 0.37, 4.92, 1.92, 1.66, 7.46, repro,
2007-10-22,0.05, 0.39, -1.26, 1.92, 1.64, 7.40, repro,
2007-10-23,1.49, 1.00, -0.14, 1.94, 1.71, 7.65, repro,
2007-10-24,0.36, 0.57, -2.07, 1.99, 1.76, 7.84, repro,
2007-10-25,-1.96, -0.22, 1.57, 1.94, 1.69, 7.54, repro,
2007-10-26,-1.35, -0.44, 3.76, 1.95, 1.70, 7.54, repro,
2007-10-27,-2.80, -0.03, 4.30, 1.92, 1.65, 7.41, repro,
2007-10-28,-1.99, -0.95, -10.41, 1.91, 1.65, 7.46, repro,
2007-10-29,-1.53, -2.71, -2.73, 1.92, 1.65, 7.49, repro,
2007-10-30,-1.82, -0.12, -2.06, 1.92, 1.66, 7.47, repro,
2007-10-31,-0.70, -1.16, -0.97, 1.92, 1.65, 7.43, repro,
2007-11-01,-0.44, -0.10, -1.64, 1.89, 1.62, 7.19, repro,
2007-11-02,0.33, -0.35, 0.52, 1.89, 1.61, 7.22, repro,
2007-11-03,0.29, -1.18, -3.57, 1.89, 1.62, 7.30, repro,
2007-11-04,0.14, -0.40, 0.77, 1.88, 1.61, 7.26, repro,
2007-11-05,0.13, -0.37, -3.87, 1.89, 1.62, 7.22, repro,
2007-11-06,-0.07, -0.93, -8.95, 1.89, 1.61, 7.23, repro,
2007-11-07,-1.20, -1.34, -1.67, 1.88, 1.62, 7.22, repro,
2007-11-08,-0.98, -0.82, 0.78, 1.91, 1.65, 7.39, repro,
2007-11-09,-2.30, -1.36, -2.55, 1.91, 1.66, 7.42, repro,
2007-11-10,-1.15, -1.20, -0.95, 1.88, 1.61, 7.23, repro,
2007-11-11,0.70, -2.57, -4.46, 1.91, 1.69, 7.40, repro,
2007-11-12,-0.35, -2.50, 1.98, 1.89, 1.62, 7.29, repro,
2007-11-13,0.02, -0.84, 7.41, 1.88, 1.62, 7.25, repro,
2007-11-14,-0.14, 0.26, -1.46, 1.88, 1.61, 7.25, repro,
2007-11-15,0.18, -0.58, -4.39, 1.91, 1.63, 7.36, repro,
2007-11-16,0.33, -0.82, -1.12, 1.92, 1.64, 7.41, repro,
2007-11-17,-0.82, -0.39, -2.65, 1.87, 1.61, 7.23, repro,
2007-11-18,0.76, -1.49, -6.14, 1.91, 1.65, 7.37, repro,
2007-11-19,1.38, -1.05, 0.82, 1.87, 1.62, 7.22, repro,
2007-11-20,0.44, -2.31, -7.81, 1.96, 1.73, 7.54, repro,
2007-11-21,0.79, -1.26, -6.10, 1.96, 1.73, 7.55, repro,
2007-11-22,0.49, -1.83, -8.86, 1.93, 1.69, 7.38, repro,
2007-11-23,0.35, -1.58, -5.76, 1.99, 1.79, 7.62, repro,
2007-11-24,0.04, -1.54, -0.97, 1.95, 1.72, 7.39, repro,
2007-11-25,0.01, -1.25, -1.94, 2.01, 1.78, 7.60, repro,
2007-11-26,1.44, -1.58, -13.03, 2.10, 1.90, 8.21, repro,
2007-11-27,0.63, 0.20, -9.76, 2.03, 1.76, 7.79, repro,
2007-11-28,0.13, -1.31, -5.27, 1.97, 1.74, 7.54, repro,
2007-11-29,1.56, -1.26, -7.46, 1.97, 1.71, 7.61, repro,
2007-11-30,-0.12, -2.51, -2.98, 2.07, 1.78, 7.79, repro,
2007-12-01,0.87, -2.17, -1.39, 2.08, 1.84, 8.03, repro,
2007-12-02,-0.32, -0.74, -6.24, 2.08, 1.87, 8.13, repro,
2007-12-03,0.43, -0.17, -12.60, 2.20, 1.97, 8.79, repro,
2007-12-04,0.89, -1.70, -4.14, 2.26, 2.12, 8.77, repro,
2007-12-05,-0.07, -0.67, -1.93, 2.06, 1.90, 8.26, repro,
2007-12-06,2.36, -2.46, -9.65, 2.17, 1.96, 8.52, repro,
2007-12-07,-0.02, -2.37, -3.40, 2.18, 2.01, 8.56, repro,
2007-12-08,-1.34, -1.51, 0.70, 2.01, 1.75, 7.76, repro,
2007-12-09,4.93, -0.01, -17.92, 2.20, 2.08, 8.67, repro,
2007-12-10,1.48, -0.57, -5.73, 2.01, 1.81, 7.71, repro,
2007-12-11,0.88, -0.81, -5.72, 2.06, 1.83, 7.89, repro,
2007-12-12,1.52, -0.21, -12.21, 2.02, 1.72, 7.92, repro,
2007-12-13,-0.12, -1.02, -9.23, 1.96, 1.69, 7.65, repro,
2007-12-14,-0.05, 0.12, -1.21, 1.96, 1.66, 7.62, repro,
2007-12-15,0.98, 1.13, -2.49, 1.96, 1.67, 7.64, repro,
2007-12-16,1.76, 0.17, -1.73, 1.96, 1.66, 7.60, repro,
2007-12-17,1.68, -0.85, 1.17, 1.99, 1.71, 7.55, repro,
2007-12-18,-2.70, -2.11, 1.36, 1.94, 1.63, 7.37, repro,
2007-12-19,-0.18, -0.94, -7.56, 2.03, 1.70, 7.78, repro,
2007-12-20,2.24, -2.69, -4.85, 1.96, 1.66, 7.54, repro,
2007-12-21,1.40, -2.17, -8.12, 2.03, 1.72, 7.80, repro,
2007-12-22,1.44, -0.64, -10.78, 2.05, 1.76, 7.93, repro,
2007-12-23,-0.52, -1.35, -5.05, 2.00, 1.73, 7.64, repro,
2007-12-24,0.62, -1.50, -2.99, 1.97, 1.68, 7.59, repro,
2007-12-25,0.81, -0.99, 0.88, 2.04, 1.81, 7.99, repro,
2007-12-26,-0.46, -0.45, -5.86, 1.97, 1.67, 7.53, repro,
2007-12-27,0.42, -1.66, 3.38, 1.98, 1.67, 7.61, repro,
2007-12-28,-0.82, -2.50, -7.50, 2.00, 1.70, 7.65, repro,
2007-12-29,-2.44, -2.72, -8.65, 1.97, 1.65, 7.51, repro,
2007-12-30,0.14, -1.59, -1.37, 2.01, 1.71, 7.70, repro,
2007-12-31,1.96, -0.18, -6.40, 1.93, 1.62, 7.38, repro,
2008-01-01,0.19, 0.40, -9.15, 1.93, 1.63, 7.40, repro,
2008-01-02,1.26, -0.65, -8.40, 1.96, 1.65, 7.55, repro,
2008-01-03,-0.75, -0.30, -3.97, 1.99, 1.67, 7.52, repro,
2008-01-04,-3.81, -1.29, -9.49, 1.92, 1.60, 7.36, repro,
2008-01-05,-1.21, -2.29, -1.19, 1.92, 1.61, 7.35, repro,
2008-01-06,-1.40, -2.16, -0.22, 1.91, 1.60, 7.29, repro,
2008-01-07,1.39, -2.66, 2.21, 1.91, 1.61, 7.32, repro,
2008-01-08,0.39, -1.51, -2.48, 1.96, 1.61, 7.57, repro,
2008-01-09,-0.87, -0.54, -4.85, 1.96, 1.61, 7.56, repro,
2008-01-10,1.72, -0.42, -1.69, 1.91, 1.60, 7.42, repro,
2008-01-11,0.37, -1.37, -8.11, 1.91, 1.61, 7.39, repro,
2008-01-12,1.66, -0.52, -2.51, 1.91, 1.61, 7.35, repro,
2008-01-13,-0.03, -0.44, -7.96, 1.90, 1.61, 7.34, repro,
2008-01-14,0.52, -0.26, -6.01, 1.89, 1.60, 7.33, repro,
2008-01-15,-0.01, -0.16, -3.50, 1.90, 1.61, 7.36, repro,
2008-01-16,-0.01, -1.73, -6.19, 1.95, 1.64, 7.55, repro,
2008-01-17,0.22, -0.85, -3.05, 1.95, 1.62, 7.46, repro,
2008-01-18,-0.06, 0.02, -5.12, 1.90, 1.65, 7.39, repro,
2008-01-19,-0.08, 0.52, -11.84, 1.88, 1.61, 7.28, repro,
2008-01-20,-1.23, -0.47, -6.47, 1.88, 1.60, 7.26, repro,
2008-01-21,0.05, -0.61, -7.67, 1.89, 1.61, 7.31, repro,
2008-01-22,-2.46, -1.78, -4.34, 1.91, 1.61, 7.35, repro,
2008-01-23,-0.28, -3.40, -7.33, 1.88, 1.60, 7.25, repro,
2008-01-24,-3.65, -0.40, -7.79, 1.88, 1.61, 7.26, repro,
2008-01-25,-4.94, -3.57, -12.82, 1.90, 1.62, 7.38, repro,
2008-01-26,-2.42, -2.48, -3.46, 1.91, 1.62, 7.38, repro,
2008-01-27,-0.72, 0.80, -12.61, 1.92, 1.63, 7.44, repro,
2008-01-28,-1.88, -2.15, -6.54, 1.94, 1.63, 7.42, repro,
2008-01-29,0.22, -0.63, -2.48, 1.96, 1.73, 7.58, repro,
2008-01-30,-1.48, 0.71, -14.24, 1.96, 1.70, 7.60, repro,
2008-01-31,0.60, -1.20, -11.10, 1.88, 1.61, 7.31, repro,
2008-02-01,2.03, -1.72, -19.13, 1.90, 1.62, 7.39, repro,
2008-02-02,0.06, -2.36, -8.89, 1.89, 1.62, 7.34, repro,
2008-02-03,-0.30, -0.24, -12.35, 1.89, 1.61, 7.28, repro,
2008-02-04,0.10, 0.96, -15.96, 1.88, 1.62, 7.31, repro,
2008-02-05,-0.14, -0.35, -6.33, 1.91, 1.67, 7.41, repro,
2008-02-06,0.60, -0.72, -16.97, 1.92, 1.67, 7.43, repro,
2008-02-07,1.05, -0.37, -7.33, 1.92, 1.64, 7.51, repro,
2008-02-08,0.68, -1.06, -3.47, 1.90, 1.60, 7.29, repro,
2008-02-09,-0.01, 0.24, -8.80, 1.89, 1.61, 7.32, repro,
2008-02-10,0.01, 0.03, -7.36, 1.87, 1.61, 7.28, repro,
2008-02-11,-0.82, -0.40, -5.07, 1.89, 1.60, 7.29, repro,
2008-02-12,-0.00, 0.75, -9.33, 1.89, 1.60, 7.27, repro,
2008-02-13,0.34, -0.63, -6.10, 1.89, 1.61, 7.30, repro,
2008-02-14,-0.29, -0.37, -4.04, 1.89, 1.61, 7.26, repro,
2008-02-15,0.42, -1.11, 0.45, 1.92, 1.67, 7.39, repro,
2008-02-16,-0.57, -0.70, -5.78, 1.87, 1.60, 7.24, repro,
2008-02-17,-1.67, 0.31, -7.30, 1.88, 1.60, 7.23, repro,
2008-02-18,-0.74, 0.51, -5.87, 1.90, 1.61, 7.32, repro,
2008-02-19,-1.15, -0.84, -3.67, 1.89, 1.61, 7.29, repro,
2008-02-20,-0.81, -1.52, -6.13, 1.89, 1.62, 7.33, repro,
2008-02-21,-0.02, -1.99, 1.35, 1.89, 1.62, 7.32, repro,
2008-02-22,-1.42, -2.74, 3.55, 1.89, 1.61, 7.28, repro,
2008-02-23,-2.92, -2.20, -3.33, 1.89, 1.61, 7.25, repro,
2008-02-24,-3.62, -0.64, -9.91, 1.91, 1.63, 7.38, repro,
2008-02-25,1.65, -0.75, -8.44, 1.89, 1.61, 7.28, repro,
2008-02-26,-0.27, 1.13, -16.02, 1.89, 1.62, 7.31, repro,
2008-02-27,-0.61, -0.70, -9.70, 1.92, 1.65, 7.47, repro,
2008-02-28,0.57, -1.19, -11.31, 1.94, 1.69, 7.65, repro,
2008-02-29,0.06, -1.34, -7.82, 1.92, 1.65, 7.50, repro,
2008-03-01,1.52, -1.05, -8.14, 1.90, 1.60, 7.28, repro,
2008-03-02,0.18, -0.75, -9.96, 2.06, 1.80, 8.08, repro,
2008-03-03,1.21, 0.18, -9.86, 1.90, 1.61, 7.33, repro,
2008-03-04,0.60, 0.11, -10.91, 1.89, 1.60, 7.31, repro,
2008-03-05,0.35, -1.36, -8.50, 1.95, 1.71, 7.66, repro,
2008-03-06,-0.55, -1.78, -5.13, 1.89, 1.60, 7.28, repro,
2008-03-07,0.37, -0.67, -10.11, 1.89, 1.60, 7.28, repro,
2008-03-08,-0.93, -1.60, -5.90, 1.93, 1.65, 7.56, repro,
2008-03-09,-0.47, -1.15, -6.73, 1.92, 1.64, 7.53, repro,
2008-03-10,0.25, -0.59, -7.31, 1.88, 1.60, 7.27, repro,
2008-03-11,0.38, -1.25, -3.55, 1.89, 1.60, 7.31, repro,
2008-03-12,1.25, -0.85, -3.11, 1.92, 1.64, 7.48, repro,
2008-03-13,-0.70, -1.22, -5.39, 1.92, 1.64, 7.48, repro,
2008-03-14,0.71, -1.44, -8.90, 1.93, 1.64, 7.51, repro,
2008-03-15,0.86, -2.89, -12.96, 1.89, 1.60, 7.29, repro,
2008-03-16,-0.10, -2.37, -8.03, 1.94, 1.68, 7.63, repro,
2008-03-17,0.04, -0.56, -5.90, 2.01, 1.79, 8.01, repro,
2008-03-18,0.30, -0.48, -7.04, 1.95, 1.69, 7.61, repro,
2008-03-19,-0.14, -1.01, -6.81, 1.92, 1.64, 7.42, repro,
2008-03-20,-0.84, -2.84, -4.38, 1.93, 1.64, 7.44, repro,
2008-03-21,-0.22, -1.62, -6.06, 1.92, 1.64, 7.41, repro,
2008-03-22,0.26, -1.30, -8.08, 1.92, 1.64, 7.43, repro,
2008-03-23,0.46, -0.98, -8.24, 1.94, 1.65, 7.48, repro,
2008-03-24,1.05, -1.23, -7.75, 1.93, 1.64, 7.42, repro,
2008-03-25,1.06, -1.07, -4.00, 1.96, 1.68, 7.54, repro,
2008-03-26,0.84, -5.11, -8.80, 1.95, 1.67, 7.46, repro,
2008-03-27,1.03, -3.64, -5.10, 1.94, 1.68, 7.46, repro,
2008-03-28,0.27, -3.17, -6.75, 1.94, 1.65, 7.43, repro,
2008-03-29,1.11, -4.56, 0.80, 1.92, 1.60, 7.35, repro,
2008-03-30,1.28, -1.89, -8.65, 1.92, 1.60, 7.37, repro,
2008-03-31,0.07, -2.32, -4.21, 1.92, 1.60, 7.32, repro,
2008-04-01,0.43, -0.89, -2.35, 1.90, 1.60, 7.30, repro,
2008-04-02,0.81, -0.85, -2.62, 1.96, 1.60, 7.51, repro,
2008-04-03,0.54, -1.69, -7.90, 1.93, 1.60, 7.36, repro,
2008-04-04,0.28, 0.12, -8.39, 1.94, 1.60, 7.38, repro,
2008-04-05,2.15, -2.33, -8.17, 1.92, 1.59, 7.35, repro,
2008-04-06,0.62, -2.71, -4.65, 1.91, 1.59, 7.33, repro,
2008-04-07,1.22, -3.43, -3.80, 1.90, 1.59, 7.26, repro,
2008-04-08,1.41, -3.09, -5.60, 1.91, 1.60, 7.36, repro,
2008-04-09,0.70, -2.81, -3.06, 1.94, 1.60, 7.39, repro,
2008-04-10,0.66, -0.02, -5.87, 1.91, 1.60, 7.36, repro,
2008-04-11,-0.01, -1.75, -4.46, 1.90, 1.59, 7.29, repro,
2008-04-12,0.42, -0.97, -7.10, 1.91, 1.59, 7.33, repro,
2008-04-13,1.20, -0.25, -7.46, 1.90, 1.59, 7.29, repro,
2008-04-14,-0.28, -1.78, -5.87, 1.93, 1.60, 7.36, repro,
2008-04-15,0.17, -3.61, 0.96, 1.99, 1.69, 7.68, repro,
2008-04-16,-0.29, -3.79, -1.51, 1.95, 1.65, 7.49, repro,
2008-04-17,0.81, -1.74, -5.92, 1.91, 1.59, 7.30, repro,
2008-04-18,1.08, -0.32, -5.10, 1.91, 1.59, 7.32, repro,
2008-04-19,-0.04, -0.83, -2.66, 1.92, 1.59, 7.33, repro,
2008-04-20,0.29, -2.95, -5.57, 1.93, 1.60, 7.40, repro,
2008-04-21,0.38, -1.73, -2.47, 1.92, 1.59, 7.37, repro,
2008-04-22,-1.02, -0.84, -5.37, 1.94, 1.62, 7.54, repro,
2008-04-23,0.18, -1.88, -13.25, 1.98, 1.66, 7.63, repro,
2008-04-24,1.18, -2.73, -5.07, 1.94, 1.62, 7.46, repro,
2008-04-25,0.26, -0.87, -1.56, 1.95, 1.60, 7.40, repro,
2008-04-26,2.62, -1.40, -3.01, 2.11, 1.75, 8.03, repro,
2008-04-27,-0.48, -1.44, -6.52, 2.01, 1.62, 7.63, repro,
2008-04-28,-0.73, -1.55, -5.94, 2.01, 1.62, 7.64, repro,
2008-04-29,0.56, -1.34, -5.65, 2.14, 1.75, 8.07, repro,
2008-04-30,0.97, -2.04, -4.15, 2.03, 1.66, 7.68, repro,
2008-05-01,0.77, -1.17, -4.30, 1.99, 1.63, 7.56, repro,
2008-05-02,0.02, -0.18, -2.64, 2.02, 1.66, 7.64, repro,
2008-05-03,-2.02, -1.80, -0.42, 2.05, 1.75, 7.89, repro,
2008-05-04,-1.01, -1.16, -3.93, 1.93, 1.59, 7.35, repro,
2008-05-05,-1.84, -1.06, 4.17, 1.99, 1.63, 7.56, repro,
2008-05-06,-0.16, -0.68, -5.43, 1.99, 1.63, 7.57, repro,
2008-05-07,1.03, -1.96, -6.33, 1.98, 1.62, 7.50, repro,
2008-05-08,0.48, -0.87, -5.31, 2.13, 1.72, 7.98, repro,
2008-05-09,-1.01, -1.45, -4.13, 1.95, 1.61, 7.42, repro,
2008-05-10,-0.43, -0.74, 0.21, 1.97, 1.63, 7.53, repro,
2008-05-11,-0.32, -0.74, 3.56, 2.04, 1.69, 7.68, repro,
2008-05-12,0.57, -2.79, -0.05, 2.12, 1.78, 8.08, repro,
2008-05-13,1.14, -1.62, -6.86, 1.95, 1.59, 7.40, repro,
2008-05-14,0.35, -1.49, -3.95, 1.96, 1.59, 7.46, repro,
2008-05-15,0.54, -1.23, -9.18, 1.93, 1.59, 7.38, repro,
2008-05-16,0.83, -0.19, -7.96, 1.96, 1.60, 7.45, repro,
2008-05-17,-1.04, -0.88, -3.11, 2.01, 1.65, 7.64, repro,
2008-05-18,-1.40, -1.68, 1.44, 2.02, 1.71, 7.74, repro,
2008-05-19,-1.56, -2.00, -5.49, 1.93, 1.59, 7.41, repro,
2008-05-20,0.82, -0.61, -0.81, 1.97, 1.62, 7.50, repro,
2008-05-21,-0.17, -3.04, 0.31, 1.93, 1.59, 7.35, repro,
2008-05-22,0.00, -2.64, 14.90, 1.96, 1.64, 7.52, repro,
2008-05-23,-0.04, -0.28, 4.13, 2.00, 1.70, 7.72, repro,
2008-05-24,0.13, -0.31, -2.32, 1.95, 1.64, 7.53, repro,
2008-05-25,0.26, -0.88, -3.55, 1.96, 1.64, 7.50, repro,
2008-05-26,-1.11, -0.19, -2.91, 1.99, 1.68, 7.62, repro,
2008-05-27,-1.50, -1.45, -2.63, 1.95, 1.64, 7.52, repro,
2008-05-28,-1.33, -1.40, -4.45, 1.98, 1.65, 7.59, repro,
2008-05-29,0.43, 0.44, -8.30, 2.02, 1.70, 7.69, repro,
2008-05-30,0.03, 0.49, -3.57, 1.95, 1.64, 7.49, repro,
2008-05-31,-0.26, 0.37, -5.90, 1.96, 1.64, 7.51, repro,
2008-06-01,-0.96, -0.94, -4.08, 1.95, 1.63, 7.50, repro,
2008-06-02,-0.77, 0.65, -3.24, 1.96, 1.65, 7.52, repro,
2008-06-03,0.70, 0.18, -4.42, 2.02, 1.66, 7.71, repro,
2008-06-04,2.78, -2.76, -0.56, 1.93, 1.58, 7.34, repro,
2008-06-05,-0.48, 0.21, -1.37, 1.93, 1.58, 7.29, repro,
2008-06-06,0.86, -0.73, -2.89, 1.96, 1.61, 7.48, repro,
2008-06-07,0.06, -3.06, 4.49, 1.99, 1.66, 7.53, repro,
2008-06-08,-0.03, -0.47, 1.07, 1.97, 1.63, 7.39, repro,
2008-06-09,-0.08, 0.36, -2.93, 1.98, 1.64, 7.49, repro,
2008-06-10,-0.36, -1.43, -3.13, 1.93, 1.58, 7.30, repro,
2008-06-11,0.51, -1.78, -0.55, 1.94, 1.58, 7.32, repro,
2008-06-12,-0.95, 0.46, -0.07, 1.95, 1.62, 7.47, repro,
2008-06-13,1.14, 0.45, -2.64, 1.95, 1.59, 7.32, repro,
2008-06-14,0.82, -1.43, -2.63, 2.01, 1.64, 7.52, repro,
2008-06-15,-0.07, -0.20, -7.29, 1.98, 1.61, 7.44, repro,
2008-06-16,0.55, -0.17, -0.29, 1.94, 1.58, 7.31, repro,
2008-06-17,0.63, -0.22, -4.09, 1.96, 1.65, 7.43, repro,
2008-06-18,-0.32, -0.55, 2.25, 1.96, 1.63, 7.38, repro,
2008-06-19,0.08, -1.45, -0.71, 2.01, 1.72, 7.76, repro,
2008-06-20,-0.85, -0.89, 3.67, 1.97, 1.66, 7.45, repro,
2008-06-21,1.04, -0.30, -7.50, 1.99, 1.69, 7.65, repro,
2008-06-22,0.35, -0.06, -8.20, 1.94, 1.59, 7.34, repro,
2008-06-23,-0.22, 0.22, -6.47, 2.01, 1.71, 7.76, repro,
2008-06-24,-0.47, -0.26, -1.68, 1.98, 1.65, 7.46, repro,
2008-06-25,-1.15, 0.45, -2.06, 1.98, 1.66, 7.48, repro,
2008-06-26,-0.34, 0.10, -4.91, 2.00, 1.70, 7.55, repro,
2008-06-27,1.03, -0.65, -4.12, 1.91, 1.56, 7.20, repro,
2008-06-28,-0.89, 0.49, -1.16, 1.95, 1.63, 7.37, repro,
2008-06-29,0.17, 0.03, -6.12, 1.96, 1.64, 7.40, repro,
2008-06-30,-1.36, 0.43, -7.13, 1.96, 1.60, 7.41, repro,
2008-07-01,0.09, -1.12, -3.88, 1.95, 1.60, 7.35, repro,
2008-07-02,1.01, 0.59, -8.57, 1.92, 1.56, 7.19, repro,
2008-07-03,1.71, -1.95, -1.58, 1.91, 1.58, 7.22, repro,
2008-07-04,0.71, -0.14, -5.07, 1.92, 1.58, 7.27, repro,
2008-07-05,1.29, 1.97, -8.49, 1.98, 1.65, 7.48, repro,
2008-07-06,0.03, 0.21, 1.00, 1.97, 1.60, 7.41, repro,
2008-07-07,-0.62, -0.25, -1.87, 1.98, 1.65, 7.44, repro,
2008-07-08,-0.03, 0.29, 0.29, 1.97, 1.64, 7.40, repro,
2008-07-09,-0.11, 2.62, 8.49, 2.00, 1.71, 7.60, repro,
2008-07-10,1.28, -0.36, 4.93, 2.01, 1.63, 7.53, repro,
2008-07-11,1.19, -0.09, 5.18, 2.06, 1.70, 7.67, repro,
2008-07-12,1.08, -1.26, -1.01, 1.96, 1.58, 7.33, repro,
2008-07-13,0.07, -0.79, 1.43, 2.03, 1.78, 7.69, repro,
2008-07-14,1.98, 0.42, 3.72, 1.97, 1.65, 7.40, repro,
2008-07-15,0.22, -0.51, -6.53, 1.96, 1.64, 7.42, repro,
2008-07-16,-0.76, -0.67, -0.79, 1.95, 1.60, 7.40, repro,
2008-07-17,0.93, -2.36, -0.63, 1.94, 1.59, 7.36, repro,
2008-07-18,0.95, -0.18, 1.28, 2.06, 1.62, 7.73, repro,
2008-07-19,-0.14, -0.24, 1.62, 2.01, 1.59, 7.57, repro,
2008-07-20,1.21, -3.33, 5.63, 1.93, 1.58, 7.29, repro,
2008-07-21,0.85, -0.44, 5.25, 2.00, 1.61, 7.52, repro,
2008-07-22,-0.40, -0.04, 3.49, 1.98, 1.59, 7.46, repro,
2008-07-23,0.07, 0.86, 5.44, 1.97, 1.58, 7.42, repro,
2008-07-24,0.42, -0.19, -1.83, 1.93, 1.57, 7.26, repro,
2008-07-25,-0.08, 0.63, 3.89, 1.93, 1.57, 7.24, repro,
2008-07-26,0.42, -0.16, 4.49, 1.93, 1.57, 7.26, repro,
2008-07-27,-0.58, -1.64, 5.13, 1.93, 1.58, 7.31, repro,
2008-07-28,0.70, 1.09, 8.62, 2.00, 1.60, 7.50, repro,
2008-07-29,0.48, 0.26, 10.04, 2.00, 1.58, 7.54, repro,
2008-07-30,0.47, 0.09, 4.96, 1.99, 1.59, 7.54, repro,
2008-07-31,1.08, -1.53, 8.70, 1.94, 1.57, 7.29, repro,
2008-08-01,0.78, -0.95, 3.32, 1.93, 1.58, 7.34, repro,
2008-08-02,0.88, 0.02, 8.70, 1.92, 1.57, 7.24, repro,
2008-08-03,-0.34, -1.32, 4.75, 1.97, 1.62, 7.40, repro,
2008-08-04,1.29, -0.66, 3.10, 1.92, 1.57, 7.26, repro,
2008-08-05,-0.12, 0.06, -2.02, 1.95, 1.58, 7.33, repro,